• In Hungary
  • List of Countries
  • For 7 days
  • Water Temperature
  • Satellite Maps
  • Weather Map
  • News
  • Weather Widgets
  • user-avatar
    Login

    Hourly Weather Pavlikovo

    Today, 25 September, Tuesday

    Time Temperature Precipitation Wind Pressure Humidity
    00:00 +4°C° 1.8 mm 6 mps 722 mmHg 94%
    01:00 +4°C° 1.8 mm 6 mps 723 mmHg 93%
    02:00 +4°C° 1.8 mm 6 mps 723 mmHg 92%
    03:00 +4°C° 1 mm 7 mps 723 mmHg 91%
    04:00 +4°C° 1 mm 7 mps 724 mmHg 91%
    05:00 +4°C° 1 mm 7 mps 725 mmHg 90%
    06:00 +4°C° 0.4 mm 7 mps 726 mmHg 89%
    07:00 +4°C° 0.4 mm 7 mps 726 mmHg 88%
    08:00 +4°C° 0.4 mm 7 mps 727 mmHg 87%
    09:00 +5°C° 0.1 mm 7 mps 728 mmHg 85%
    10:00 +5°C° 0.1 mm 7 mps 729 mmHg 83%
    11:00 +5°C° 0.1 mm 7 mps 730 mmHg 81%
    12:00 +5°C° 0.1 mm 7 mps 731 mmHg 79%
    13:00 +6°C° 0.1 mm 7 mps 732 mmHg 76%
    14:00 +6°C° 0.1 mm 7 mps 732 mmHg 74%
    15:00 +5°C° 0 mm 6 mps 733 mmHg 73%
    16:00 +6°C° 0 mm 5 mps 734 mmHg 73%
    17:00 +6°C° 0 mm 5 mps 734 mmHg 72%
    18:00 +5°C° 0 mm 5 mps 735 mmHg 75%
    19:00 +5°C° 0 mm 5 mps 736 mmHg 77%
    20:00 +3°C° 0 mm 5 mps 737 mmHg 80%
    21:00 +4°C° 0 mm 4 mps 737 mmHg 80%
    22:00 +4°C° 0 mm 4 mps 738 mmHg 79%
    23:00 +3°C° 0 mm 4 mps 739 mmHg 79%

    Tomorrow, 26 September, Wednesday

    Time Temperature Precipitation Wind Pressure Humidity
    00:00 +3°C° 0 mm 4 mps 739 mmHg 79%
    01:00 +1°C° 0 mm 4 mps 740 mmHg 78%
    02:00 +1°C° 0 mm 4 mps 741 mmHg 77%
    03:00 0°C° 0 mm 4 mps 741 mmHg 77%
    04:00 +1°C° 0 mm 3 mps 742 mmHg 77%
    05:00 0°C° 0 mm 3 mps 742 mmHg 78%
    06:00 +1°C° 0 mm 3 mps 743 mmHg 75%
    07:00 +2°C° 0 mm 3 mps 743 mmHg 73%
    08:00 +3°C° 0 mm 3 mps 744 mmHg 71%
    09:00 +5°C° 0 mm 3 mps 744 mmHg 68%
    10:00 +6°C° 0 mm 4 mps 744 mmHg 65%
    11:00 +8°C° 0 mm 4 mps 744 mmHg 63%
    12:00 +10°C° 0 mm 4 mps 743 mmHg 60%
    13:00 +10°C° 0 mm 4 mps 743 mmHg 58%
    14:00 +11°C° 0 mm 4 mps 742 mmHg 55%
    15:00 +10°C° 0 mm 4 mps 742 mmHg 58%
    16:00 +8°C° 0 mm 4 mps 741 mmHg 61%
    17:00 +7°C° 0 mm 4 mps 740 mmHg 64%
    18:00 +7°C° 0.1 mm 5 mps 740 mmHg 66%
    19:00 +6°C° 0.1 mm 5 mps 739 mmHg 69%
    20:00 +5°C° 0.1 mm 6 mps 738 mmHg 71%
    21:00 +5°C° 0.9 mm 6 mps 737 mmHg 76%
    22:00 +4°C° 0.9 mm 7 mps 735 mmHg 82%
    23:00 +4°C° 0.9 mm 8 mps 734 mmHg 88%

    Day after tomorrow, 27 September, Thursday

    Time Temperature Precipitation Wind Pressure Humidity
    00:00 +4°C° 1.2 mm 8 mps 733 mmHg 88%
    01:00 +4°C° 1.2 mm 8 mps 731 mmHg 89%
    02:00 +5°C° 1.2 mm 8 mps 730 mmHg 89%
    03:00 +5°C° 0.9 mm 7 mps 730 mmHg 90%
    04:00 +5°C° 0.9 mm 7 mps 729 mmHg 90%
    05:00 +7°C° 0.9 mm 6 mps 729 mmHg 91%
    06:00 +7°C° 0.2 mm 6 mps 729 mmHg 88%
    07:00 +7°C° 0.2 mm 6 mps 729 mmHg 85%
    08:00 +7°C° 0.2 mm 5 mps 729 mmHg 82%
    09:00 +8°C° 0.1 mm 6 mps 730 mmHg 76%
    10:00 +8°C° 0.1 mm 6 mps 730 mmHg 70%
    11:00 +9°C° 0.1 mm 7 mps 730 mmHg 65%
    12:00 +9°C° 0 mm 7 mps 730 mmHg 62%
    13:00 +9°C° 0 mm 7 mps 731 mmHg 59%
    14:00 +10°C° 0 mm 7 mps 731 mmHg 56%
    15:00 +9°C° 0 mm 6 mps 731 mmHg 60%
    16:00 +8°C° 0 mm 5 mps 732 mmHg 64%
    17:00 +7°C° 0 mm 4 mps 732 mmHg 68%
    18:00 +6°C° 0 mm 4 mps 732 mmHg 70%
    19:00 +6°C° 0 mm 4 mps 733 mmHg 72%
    20:00 +5°C° 0 mm 4 mps 733 mmHg 75%
    21:00 +5°C° 0 mm 4 mps 733 mmHg 75%
    22:00 +5°C° 0 mm 4 mps 733 mmHg 76%
    23:00 +4°C° 0 mm 4 mps 734 mmHg 77%

    28 September, Friday

    Time Temperature Precipitation Wind Pressure Humidity
    00:00 +4°C° 0 mm 3 mps 733 mmHg 79%
    01:00 +3°C° 0 mm 3 mps 733 mmHg 82%
    02:00 +3°C° 0 mm 3 mps 733 mmHg 84%
    03:00 +3°C° 0.2 mm 3 mps 732 mmHg 85%
    04:00 +3°C° 0.2 mm 3 mps 731 mmHg 86%
    05:00 +4°C° 0.2 mm 3 mps 731 mmHg 86%
    06:00 +5°C° 2.5 mm 4 mps 729 mmHg 88%
    07:00 +6°C° 2.5 mm 5 mps 728 mmHg 91%
    08:00 +7°C° 2.5 mm 6 mps 726 mmHg 93%
    09:00 +7°C° 2 mm 6 mps 726 mmHg 92%
    10:00 +7°C° 2 mm 6 mps 726 mmHg 92%
    11:00 +7°C° 2 mm 5 mps 725 mmHg 91%
    12:00 +7°C° 0.3 mm 5 mps 726 mmHg 90%
    13:00 +6°C° 0.3 mm 5 mps 728 mmHg 88%
    14:00 +5°C° 0.3 mm 5 mps 729 mmHg 87%
    15:00 +5°C° 0 mm 4 mps 730 mmHg 86%
    16:00 +4°C° 0 mm 4 mps 732 mmHg 85%
    17:00 +4°C° 0 mm 3 mps 733 mmHg 84%
    18:00 +3°C° 0 mm 3 mps 734 mmHg 86%
    19:00 +2°C° 0 mm 3 mps 735 mmHg 88%
    20:00 +2°C° 0 mm 3 mps 736 mmHg 90%
    21:00 +2°C° 0 mm 2 mps 736 mmHg 91%
    22:00 +2°C° 0 mm 2 mps 737 mmHg 91%
    23:00 +1°C° 0 mm 2 mps 737 mmHg 92%

    29 September, Saturday

    Time Temperature Precipitation Wind Pressure Humidity
    00:00 +1°C° 0 mm 2 mps 737 mmHg 91%
    01:00 +1°C° 0 mm 2 mps 737 mmHg 91%
    02:00 -1°C° 0 mm 2 mps 738 mmHg 90%
    03:00 +1°C° 0 mm 2 mps 738 mmHg 90%
    04:00 0°C° 0 mm 3 mps 738 mmHg 90%
    05:00 +1°C° 0 mm 3 mps 738 mmHg 90%
    06:00 +2°C° 0.1 mm 3 mps 738 mmHg 90%
    07:00 +3°C° 0.1 mm 3 mps 739 mmHg 90%
    08:00 +3°C° 0.1 mm 3 mps 739 mmHg 90%
    09:00 +4°C° 0.1 mm 3 mps 740 mmHg 87%
    10:00 +4°C° 0.1 mm 3 mps 740 mmHg 84%
    11:00 +5°C° 0.1 mm 3 mps 740 mmHg 81%
    12:00 +5°C° 0.1 mm 3 mps 741 mmHg 75%
    13:00 +7°C° 0.1 mm 3 mps 741 mmHg 69%
    14:00 +7°C° 0.1 mm 3 mps 741 mmHg 64%
    15:00 +6°C° 0 mm 2 mps 741 mmHg 66%
    16:00 +5°C° 0 mm 2 mps 742 mmHg 69%
    17:00 +4°C° 0 mm 2 mps 742 mmHg 71%
    18:00 +4°C° 0 mm 1 mps 742 mmHg 73%
    19:00 +3°C° 0 mm 1 mps 743 mmHg 75%
    20:00 +2°C° 0 mm 1 mps 743 mmHg 77%
    21:00 +2°C° 0 mm 1 mps 743 mmHg 79%
    22:00 +2°C° 0 mm 1 mps 744 mmHg 80%
    23:00 +1°C° 0 mm 1 mps 744 mmHg 81%

    30 September, Sunday

    Time Temperature Precipitation Wind Pressure Humidity
    00:00 +1°C° 0 mm 1 mps 744 mmHg 82%
    01:00 +1°C° 0 mm 1 mps 744 mmHg 83%
    02:00 -1°C° 0 mm 2 mps 744 mmHg 84%
    03:00 -1°C° 0 mm 2 mps 744 mmHg 84%
    04:00 -2°C° 0 mm 2 mps 744 mmHg 84%
    05:00 -2°C° 0 mm 2 mps 744 mmHg 85%
    06:00 +1°C° 0 mm 2 mps 744 mmHg 79%
    07:00 +2°C° 0 mm 2 mps 744 mmHg 73%
    08:00 +3°C° 0 mm 2 mps 744 mmHg 68%
    09:00 +3°C° 0 mm 3 mps 744 mmHg 63%
    10:00 +5°C° 0 mm 3 mps 744 mmHg 58%
    11:00 +7°C° 0 mm 3 mps 744 mmHg 53%
    12:00 +7°C° 0 mm 3 mps 744 mmHg 52%
    13:00 +8°C° 0 mm 3 mps 743 mmHg 52%
    14:00 +8°C° 0 mm 3 mps 743 mmHg 51%
    15:00 +7°C° 0 mm 3 mps 742 mmHg 56%
    16:00 +5°C° 0 mm 3 mps 742 mmHg 61%
    17:00 +4°C° 0 mm 3 mps 741 mmHg 66%
    18:00 +3°C° 0 mm 3 mps 741 mmHg 69%
    19:00 +3°C° 0 mm 3 mps 741 mmHg 72%
    20:00 +2°C° 0 mm 3 mps 741 mmHg 75%
    21:00 +2°C° 0 mm 3 mps 741 mmHg 77%
    22:00 +2°C° 0 mm 3 mps 740 mmHg 79%
    23:00 +2°C° 0 mm 3 mps 740 mmHg 81%
    Show more